Location: Newark
(49.8348°N, 24.0280°E)
Time: 19:20:17
(UTC+00:00)

Explorer 7 - Pass Details

Date: 23 January 2020
Orbit: 485 x 679 km, 50.3° (Epoch: 26 February)

Event Time Altitude Azimuth Distance (km) Brightness Sun altitude
Rises 22:28:49 0° 238° (WSW) 2,548 - -59.5°
Reaches altitude 10° 22:31:00 10° 234° (SW) 1,664 - -59.5°
Maximum altitude 22:34:39 53° 157° (SSE) 605 - -59.6°
Drops below altitude 10° 22:38:21 10° 80° (E) 1,688 - -59.6°
Sets 22:40:35 0° 76° (ENE) 2,589 - -59.5°
